GW3550 Weather Reports


Display with metric or nautical units.
time (UTC)temp
F
wind
direction
speed
MPH
gust
MPH
rain 1hr
in
rain 24hr
in
rain mn
in
humidity
%
barometer
mb
20260508065404 53 216 0.0 0.0 0.00 0.00 0.00 98 1016.4
20260508064902 53 215 0.0 1.0 0.00 0.00 0.00 98 1016.1
20260508064359 53 244 0.0 1.0 0.00 0.00 0.00 98 1016.3
20260508063857 53 214 0.0 2.0 0.00 0.00 0.00 98 1016.3
20260508063355 53 227 0.0 0.0 0.00 0.00 0.00 98 1016.3
20260508062851 53 235 0.0 0.0 0.00 0.00 0.00 98 1016.3
20260508062343 53 235 0.0 0.0 0.00 0.00 0.00 98 1016.6
20260508061840 53 239 0.0 0.0 0.00 0.00 0.00 98 1016.4
20260508061337 54 230 0.0 0.0 0.00 0.00 0.00 98 1016.8
20260508060833 54 230 0.0 0.0 0.00 0.00 0.00 98 1016.6
20260508060332 54 229 0.0 0.0 0.00 0.00 0.00 98 1016.6
20260508055826 54 249 1.0 1.0 0.00 0.00 0.00 98 1016.6
20260508055324 54 241 1.0 1.0 0.00 0.00 0.00 98 1016.6
20260508054821 54 230 1.0 1.0 0.00 0.00 0.00 98 1016.5
20260508054318 54 237 1.0 2.0 0.00 0.00 0.00 98 1016.5
20260508053815 54 240 0.0 0.0 0.00 0.00 0.00 98 1016.6
20260508053313 54 242 0.0 0.0 0.00 0.00 0.00 98 1016.5
20260508052810 53 240 0.0 0.0 0.00 0.00 0.00 98 1016.6
20260508052307 54 241 0.0 0.0 0.00 0.00 0.00 97 1016.6
20260508051803 54 235 0.0 0.0 0.00 0.00 0.00 97 1016.7
20260508051258 54 236 0.0 1.0 0.00 0.00 0.00 97 1017.0
20260508050755 54 221 0.0 1.0 0.00 0.00 0.00 97 1016.9
20260508050252 55 239 0.0 1.0 0.00 0.00 0.00 97 1016.4
20260508045748 55 230 0.0 2.0 0.00 0.00 0.00 97 1016.6
20260508045246 55 235 2.0 2.0 0.00 0.00 0.00 97 1016.3
20260508044743 54 237 1.0 1.0 0.00 0.00 0.00 97 1016.5
20260508044240 54 237 0.0 0.0 0.00 0.00 0.00 97 1016.5
20260508043736 55 237 0.0 1.0 0.00 0.00 0.00 96 1016.4
20260508043233 55 237 1.0 1.0 0.00 0.00 0.00 96 1016.7
20260508042730 55 237 1.0 1.0 0.00 0.00 0.00 96 1016.4
20260508042227 55 241 1.0 2.0 0.00 0.00 0.00 97 1016.6
20260508041724 55 219 1.0 2.0 0.00 0.00 0.00 97 1016.4
20260508041220 54 218 0.0 1.0 0.00 0.00 0.00 97 1016.4
20260508040717 55 218 1.0 1.0 0.00 0.00 0.00 97 1016.5
20260508040214 55 218 0.0 1.0 0.00 0.00 0.00 96 1016.5
20260508035711 55 218 0.0 0.0 0.00 1.73 1.73 96 1016.2
20260508035209 55 218 0.0 0.0 0.00 1.73 1.73 96 1016.4
20260508034705 55 218 0.0 0.0 0.00 1.73 1.73 95 1016.4
20260508034203 55 218 0.0 1.0 0.00 1.73 1.73 95 1016.5
20260508033659 55 218 0.0 1.0 0.00 1.73 1.73 95 1016.5
20260508033158 55 229 0.0 1.0 0.00 1.73 1.73 95 1016.3
20260508032655 55 233 0.0 1.0 0.00 1.73 1.73 95 1016.5
20260508032152 55 233 0.0 0.0 0.00 1.73 1.73 95 1016.3
20260508031649 55 233 0.0 0.0 0.00 1.73 1.73 94 1016.3
20260508031145 55 233 0.0 0.0 0.00 1.73 1.73 93 1016.4
20260508030641 56 233 0.0 0.0 0.00 1.73 1.73 92 1016.3
20260508030139 57 233 0.0 0.0 0.00 1.73 1.73 91 1016.5
20260508025635 57 233 0.0 0.0 0.00 1.73 1.73 90 1016.5
20260508025133 58 233 0.0 0.0 0.00 1.73 1.73 89 1016.3
20260508024628 58 235 0.0 1.0 0.00 1.73 1.73 89 1016.3
20260508024126 58 235 0.0 1.0 0.00 1.73 1.73 88 1016.4
20260508023622 58 239 1.0 1.0 0.00 1.73 1.73 88 1016.3
20260508023120 58 241 1.0 1.0 0.00 1.73 1.73 87 1016.4
20260508022615 59 241 0.0 0.0 0.00 1.73 1.73 87 1015.9
20260508022113 59 245 1.0 2.0 0.00 1.73 1.73 86 1016.1
20260508021608 58 237 1.0 2.0 0.00 1.73 1.73 87 1015.7
20260508021104 58 230 0.0 1.0 0.00 1.73 1.73 87 1015.9
20260508020602 59 240 0.0 0.0 0.00 1.73 1.73 87 1015.9
20260508020059 59 239 0.0 1.0 0.00 1.73 1.73 86 1015.8
20260508015557 59 239 1.0 2.0 0.00 1.73 1.73 85 1015.6
20260508015053 59 232 0.0 1.0 0.00 1.73 1.73 85 1015.8
20260508014550 59 215 0.0 1.0 0.00 1.73 1.73 85 1015.9
20260508014046 59 227 1.0 2.0 0.00 1.73 1.73 84 1015.6
20260508013542 60 245 0.0 1.0 0.00 1.73 1.73 84 1015.7
20260508013039 60 232 1.0 2.0 0.00 1.73 1.73 83 1015.6
20260508012537 60 232 1.0 2.0 0.00 1.73 1.73 82 1015.5
20260508012034 61 246 2.0 2.0 0.00 1.73 1.73 81 1015.6
20260508011532 61 238 1.0 2.0 0.00 1.73 1.73 80 1015.5
20260508011029 61 224 1.0 1.0 0.00 1.73 1.73 79 1015.3
20260508010526 62 223 1.0 3.0 0.00 1.73 1.73 78 1015.4
20260508010024 62 248 1.0 3.0 0.00 1.73 1.73 78 1015.3
20260508005520 62 250 2.0 3.0 0.00 1.73 1.73 77 1015.0
20260508005017 62 251 2.0 4.0 0.00 1.73 1.73 77 1014.9
20260508004513 62 244 2.0 3.0 0.00 1.73 1.73 76 1014.9
20260508004010 62 265 6.0 8.0 0.00 1.73 1.73 76 1015.0
20260508003506 62 242 3.0 3.0 0.00 1.73 1.73 76 1015.1
20260508003005 62 235 0.0 2.0 0.00 1.73 1.73 76 1015.1
20260508002459 63 258 1.0 3.0 0.00 1.73 1.73 76 1014.8
20260508001956 63 243 2.0 3.0 0.00 1.73 1.73 75 1014.9
20260508001453 63 220 1.0 2.0 0.00 1.73 1.73 75 1014.9
20260508000949 63 249 2.0 2.0 0.00 1.73 1.73 74 1014.8
20260508000445 63 193 0.0 3.0 0.00 1.73 1.73 74 1014.6
20260507235942 64 245 1.0 6.0 0.00 1.73 1.73 73 1014.7
20260507235439 64 245 4.0 6.0 0.00 1.73 1.73 73 1014.6
20260507234937 64 270 2.0 7.0 0.00 1.73 1.73 73 1014.6
20260507234433 64 231 2.0 3.0 0.00 1.73 1.73 73 1014.5
20260507233929 65 240 4.0 6.0 0.00 1.73 1.73 71 1014.5
20260507233426 65 216 1.0 6.0 0.00 1.73 1.73 71 1014.3
20260507232925 65 239 2.0 8.0 0.00 1.73 1.73 71 1014.2
20260507232421 66 243 1.0 8.0 0.00 1.73 1.73 70 1014.4
20260507231918 66 235 4.0 8.0 0.00 1.73 1.73 69 1014.1
20260507231414 66 259 2.0 11.0 0.00 1.73 1.73 70 1014.0
20260507230911 67 257 4.0 7.0 0.00 1.73 1.73 69 1014.3
20260507230409 67 213 6.0 11.0 0.00 1.73 1.73 71 1013.8
20260507225909 67 256 5.0 8.0 0.00 1.73 1.73 70 1014.0
20260507225405 67 248 7.0 9.0 0.00 1.73 1.73 71 1014.0
20260507224901 68 237 2.0 11.0 0.00 1.73 1.73 72 1014.1
20260507224357 67 268 5.0 11.0 0.00 1.73 1.73 71 1013.8
20260507223854 67 251 3.0 9.0 0.00 1.73 1.73 72 1013.7
20260507223350 68 207 5.0 11.0 0.00 1.73 1.73 72 1013.5
20260507222847 68 246 4.0 8.0 0.00 1.73 1.73 70 1013.6
20260507222343 68 246 3.0 14.0 0.00 1.73 1.73 70 1013.7
20260507221840 69 211 6.0 14.0 0.00 1.73 1.73 70 1013.4
20260507221337 69 242 7.0 8.0 0.00 1.73 1.73 69 1013.6
20260507220832 68 230 2.0 7.0 0.00 1.73 1.73 71 1013.6
20260507220331 68 270 5.0 8.0 0.00 1.73 1.73 72 1013.3
20260507215827 69 310 10.0 14.0 0.00 1.73 1.73 70 1013.4
20260507215324 69 262 7.0 10.0 0.00 1.73 1.73 71 1013.4
20260507214821 70 303 5.0 14.0 0.00 1.73 1.73 69 1013.1
20260507214319 70 281 5.0 11.0 0.00 1.73 1.73 69 1013.3
20260507213813 69 219 3.0 7.0 0.00 1.73 1.73 72 1013.2
20260507213311 70 225 5.0 9.0 0.00 1.73 1.73 72 1013.0
20260507212808 69 259 2.0 8.0 0.00 1.73 1.73 72 1013.2
20260507212306 70 216 7.0 14.0 0.00 1.73 1.73 71 1012.8
20260507211800 70 255 4.0 10.0 0.00 1.73 1.73 71 1013.1
20260507211257 70 272 4.0 8.0 0.00 1.73 1.73 70 1013.0
20260507210753 69 243 8.0 11.0 0.00 1.73 1.73 71 1012.9
20260507210251 70 230 8.0 15.0 0.00 1.73 1.73 70 1013.0
20260507205747 70 274 8.0 11.0 0.00 1.73 1.73 70 1013.0
20260507205244 69 246 5.0 13.0 0.00 1.73 1.73 73 1013.0
20260507204740 69 244 4.0 7.0 0.00 1.73 1.73 74 1013.3
20260507204238 69 258 4.0 15.0 0.00 1.73 1.73 74 1013.1
20260507203736 69 220 5.0 13.0 0.00 1.73 1.73 74 1012.8
20260507203233 70 239 9.0 11.0 0.00 1.73 1.73 72 1012.9
20260507202729 70 250 6.0 10.0 0.00 1.73 1.73 72 1012.9
20260507202225 71 225 11.0 14.0 0.00 1.73 1.73 72 1012.6
20260507201720 72 246 8.0 10.0 0.00 1.73 1.73 71 1012.7
20260507201217 72 261 8.0 13.0 0.00 1.73 1.73 69 1012.4
20260507200708 73 231 3.0 7.0 0.00 1.73 1.73 69 1012.6
20260507200205 71 243 2.0 9.0 0.00 1.73 1.73 73 1012.8
20260507195701 71 247 2.0 6.0 0.00 1.73 1.73 72 1012.5
20260507195158 73 245 4.0 11.0 0.00 1.73 1.73 70 1012.7
20260507194655 72 256 5.0 10.0 0.00 1.73 1.73 70 1012.8
20260507194150 73 237 4.0 9.0 0.00 1.73 1.73 70 1012.7
20260507193648 72 221 2.0 4.0 0.00 1.73 1.73 71 1012.7
20260507193145 72 275 9.0 11.0 0.00 1.73 1.73 72 1012.7
20260507192640 72 227 5.0 13.0 0.00 1.73 1.73 72 1012.7
20260507192138 73 282 4.0 7.0 0.00 1.73 1.73 70 1012.9
20260507191633 72 247 6.0 10.0 0.00 1.73 1.73 72 1012.8
20260507191130 72 250 4.0 9.0 0.00 1.73 1.73 74 1013.1
20260507190627 71 276 5.0 13.0 0.00 1.73 1.73 74 1013.1
20260507190126 70 261 5.0 14.0 0.00 1.73 1.73 75 1013.2
20260507185624 70 261 4.0 8.0 0.00 1.73 1.73 77 1013.1
20260507185120 71 299 9.0 11.0 0.00 1.73 1.73 76 1013.2
20260507184619 70 277 3.0 6.0 0.00 1.73 1.73 77 1013.0
20260507184117 71 263 7.0 9.0 0.00 1.73 1.73 78 1013.2
20260507183613 71 242 3.0 7.0 0.00 1.73 1.73 77 1013.0
20260507183110 70 245 6.0 14.0 0.00 1.73 1.73 78 1013.2
20260507182606 71 259 6.0 13.0 0.00 1.73 1.73 77 1013.0
20260507182102 70 275 4.0 10.0 0.00 1.73 1.73 79 1013.1
20260507181559 70 240 2.0 9.0 0.00 1.73 1.73 79 1013.1
20260507181055 70 224 9.0 13.0 0.00 1.73 1.73 79 1013.2
20260507180552 70 231 1.0 7.0 0.00 1.73 1.73 81 1013.1
20260507180049 69 242 6.0 10.0 0.00 1.73 1.73 80 1013.1
20260507175545 70 291 2.0 7.0 0.00 1.73 1.73 80 1013.1
20260507175043 71 273 7.0 11.0 0.00 1.73 1.73 78 1013.0
20260507174539 71 251 1.0 3.0 0.00 1.73 1.73 81 1013.2
20260507174037 70 248 2.0 4.0 0.00 1.73 1.73 81 1013.2
20260507173534 71 208 2.0 11.0 0.00 1.73 1.73 81 1013.2
20260507173031 72 273 9.0 17.0 0.00 1.73 1.73 77 1012.9
20260507172527 71 257 4.0 7.0 0.00 1.73 1.73 81 1013.0
20260507172024 71 214 5.0 13.0 0.00 1.73 1.73 81 1013.0
20260507171519 72 247 6.0 11.0 0.00 1.73 1.73 80 1012.8
20260507171017 71 260 6.0 9.0 0.00 1.73 1.73 81 1012.8
20260507170513 70 258 4.0 10.0 0.00 1.73 1.73 82 1013.0
20260507170010 70 228 5.0 11.0 0.00 1.73 1.73 81 1013.1
20260507165506 72 247 1.0 3.0 0.00 1.73 1.73 82 1013.0
20260507165003 71 258 9.0 11.0 0.00 1.73 1.73 82 1012.8
20260507164459 71 249 6.0 7.0 0.00 1.73 1.73 83 1013.0
20260507163956 71 211 2.0 6.0 0.00 1.73 1.73 83 1012.8
20260507163453 71 258 3.0 9.0 0.00 1.73 1.73 85 1013.0
20260507162950 70 258 3.0 10.0 0.00 1.73 1.73 86 1013.1
20260507162445 70 229 2.0 7.0 0.00 1.73 1.73 86 1013.1
20260507161943 71 260 2.0 9.0 0.00 1.73 1.73 85 1012.8
20260507161439 70 233 6.0 10.0 0.00 1.73 1.73 85 1013.0
20260507160936 69 264 1.0 9.0 0.00 1.73 1.73 89 1013.0
20260507160432 68 262 6.0 7.0 0.00 1.73 1.73 91 1012.8
20260507155927 67 255 6.0 7.0 0.00 1.73 1.73 95 1012.9
20260507155424 65 251 2.0 4.0 0.00 1.73 1.73 99 1012.6
20260507154921 66 255 1.0 3.0 0.00 1.73 1.73 99 1012.8
20260507154418 66 253 2.0 3.0 0.00 1.73 1.73 99 1012.7
20260507153915 66 250 2.0 6.0 0.00 1.73 1.73 99 1012.7
20260507153412 66 249 4.0 6.0 0.00 1.73 1.73 99 1012.9
20260507152908 65 246 1.0 4.0 0.00 1.73 1.73 99 1012.6
20260507152404 66 226 0.0 2.0 0.00 1.73 1.73 99 1012.5
20260507151900 65 228 0.0 2.0 0.00 1.73 1.73 99 1013.0
20260507151356 66 259 1.0 3.0 0.00 1.73 1.73 99 1012.8
20260507150854 66 259 0.0 2.0 0.00 1.73 1.73 99 1012.7
20260507150351 65 260 0.0 1.0 0.00 1.73 1.73 99 1013.0
20260507145847 65 215 2.0 3.0 0.00 1.73 1.73 99 1012.8
20260507145343 65 237 0.0 1.0 0.00 1.73 1.73 99 1012.9
20260507144840 64 241 0.0 2.0 0.00 1.73 1.73 99 1013.1
20260507144337 64 256 0.0 0.0 0.00 1.73 1.73 99 1013.2
20260507143833 64 257 1.0 2.0 0.00 1.73 1.73 99 1013.3
20260507143331 64 244 1.0 2.0 0.00 1.73 1.73 99 1013.2
20260507142826 64 243 1.0 1.0 0.00 1.73 1.73 99 1013.2
20260507142318 64 250 0.0 0.0 0.00 1.73 1.73 99 1013.1
20260507141814 64 250 0.0 0.0 0.07 1.73 1.73 99 1012.8
20260507141306 63 250 0.0 0.0 0.12 1.73 1.73 99 1012.9
20260507140801 63 250 0.0 0.0 0.17 1.72 1.72 99 1012.8
20260507140259 63 250 0.0 0.0 0.12 1.70 1.70 99 1013.2
20260507135757 63 249 0.0 1.0 0.14 1.69 1.69 99 1013.1
20260507135253 63 250 1.0 2.0 0.07 1.68 1.68 99 1013.5
20260507134750 63 240 0.0 1.0 0.05 1.67 1.67 99 1013.4
20260507134246 63 261 0.0 0.0 0.05 1.67 1.67 99 1012.8
20260507133742 63 261 0.0 0.0 0.00 1.66 1.66 99 1012.1
20260507133238 63 261 0.0 0.0 0.00 1.66 1.66 99 1012.0
20260507132736 64 261 0.0 0.0 0.12 1.66 1.66 99 1012.1
20260507132233 63 261 0.0 0.0 0.28 1.65 1.65 99 1012.2
20260507131729 63 261 0.0 0.0 0.47 1.64 1.64 99 1012.2
20260507131227 63 261 0.0 0.0 0.17 1.59 1.59 99 1012.7
20260507130724 63 261 0.0 0.0 0.00 1.56 1.56 99 1012.9
20260507130221 63 261 0.0 0.0 0.00 1.56 1.56 99 1012.4
20260507125720 63 261 0.0 0.0 0.07 1.56 1.56 99 1012.5
20260507125217 62 261 0.0 0.0 0.26 1.56 1.56 99 1012.5
20260507124713 62 260 0.0 0.0 0.12 1.54 1.54 99 1012.9
20260507124211 62 293 0.0 0.0 0.17 1.52 1.52 99 1013.0
20260507123709 62 298 0.0 0.0 0.28 1.50 1.50 99 1012.8
20260507123206 62 296 0.0 0.0 0.54 1.49 1.49 99 1013.0
20260507122700 62 216 0.0 2.0 0.59 1.44 1.44 99 1013.3
20260507122157 62 260 1.0 2.0 0.94 1.41 1.41 99 1013.4
20260507121653 62 268 0.0 2.0 0.78 1.34 1.34 99 1013.0
20260507121149 62 232 1.0 3.0 0.71 1.24 1.24 99 1013.2
20260507120645 62 276 0.0 0.0 0.54 1.20 1.20 99 1012.3
20260507120142 62 277 0.0 0.0 0.12 1.12 1.12 99 1012.1
20260507115639 62 112 0.0 1.0 0.05 1.11 1.11 99 1011.7
20260507115134 62 112 0.0 0.0 0.07 1.10 1.10 99 1011.7
20260507114631 62 171 0.0 0.0 0.12 1.10 1.10 99 1011.6
20260507114128 62 271 0.0 2.0 0.17 1.09 1.09 99 1011.6
20260507113626 62 184 0.0 1.0 0.26 1.08 1.08 99 1011.9
20260507113122 62 32 2.0 3.0 0.31 1.06 1.06 99 1011.5
20260507112620 62 23 3.0 4.0 0.24 1.03 1.03 99 1011.6
20260507112116 62 39 3.0 4.0 0.54 1.01 1.01 99 1011.6
20260507111614 62 235 2.0 4.0 0.90 0.99 0.99 99 1011.7
20260507111110 62 243 2.0 9.0 0.59 0.91 0.91 99 1011.8
20260507110607 62 13 2.0 6.0 0.12 0.83 0.83 99 1011.9
20260507105600 62 23 1.0 1.0 0.07 0.81 0.81 99 1011.2
20260507105055 62 188 0.0 0.0 0.05 0.80 0.80 99 1010.9
20260507104553 62 188 0.0 0.0 0.12 0.80 0.80 99 1010.9
20260507104049 62 177 0.0 0.0 0.12 0.79 0.79 99 1011.0
20260507103545 62 177 0.0 0.0 0.28 0.78 0.78 99 1010.9
20260507103042 62 26 0.0 0.0 0.40 0.76 0.76 99 1011.1
20260507102539 62 24 0.0 1.0 0.61 0.73 0.73 99 1011.2
20260507102035 62 20 1.0 2.0 0.61 0.69 0.69 99 1011.4
20260507101530 62 330 0.0 0.0 0.35 0.63 0.63 99 1011.4
20260507101027 62 206 0.0 0.0 0.24 0.59 0.59 99 1011.4
20260507100525 62 16 1.0 2.0 0.19 0.57 0.57 99 1011.3
20260507100023 62 99 0.0 0.0 0.00 0.54 0.54 99 1011.4
20260507095520 62 232 0.0 0.0 0.00 0.54 0.54 99 1011.6
20260507095016 62 249 0.0 0.0 0.00 0.54 0.54 99 1011.8
20260507094513 62 259 0.0 0.0 0.05 0.54 0.54 99 1011.9
20260507094010 62 207 0.0 0.0 0.00 0.53 0.53 99 1011.9
20260507093507 62 225 0.0 0.0 0.00 0.53 0.53 99 1012.0
20260507093006 62 209 0.0 0.0 0.00 0.53 0.53 99 1011.9
20260507092502 62 225 0.0 2.0 0.00 0.53 0.53 99 1012.1
20260507091959 62 229 0.0 0.0 0.00 0.53 0.53 99 1011.9
20260507091455 62 221 0.0 0.0 0.00 0.53 0.53 99 1011.8
20260507090951 62 130 0.0 1.0 0.00 0.53 0.53 99 1012.2
20260507090442 62 233 0.0 0.0 0.00 0.53 0.53 99 1012.5
20260507085939 62 219 0.0 0.0 0.00 0.53 0.53 99 1012.4
20260507085436 62 215 0.0 0.0 0.00 0.53 0.53 99 1012.5
20260507084932 62 232 0.0 0.0 0.00 0.53 0.53 99 1012.6
20260507084429 62 162 0.0 0.0 0.00 0.53 0.53 99 1012.7
20260507083926 62 219 0.0 0.0 0.00 0.53 0.53 99 1012.5
20260507083423 62 232 0.0 0.0 0.07 0.53 0.53 99 1012.7
20260507082919 62 231 0.0 0.0 0.07 0.53 0.53 99 1012.8
20260507082415 62 231 0.0 0.0 0.00 0.52 0.52 99 1012.8
20260507081912 62 227 0.0 0.0 0.05 0.52 0.52 99 1012.5
20260507081408 62 311 0.0 0.0 0.17 0.52 0.52 99 1012.4
20260507080905 62 234 0.0 1.0 0.19 0.51 0.51 99 1012.3
20260507080401 62 218 0.0 1.0 0.07 0.49 0.49 99 1012.3
20260507075856 62 233 0.0 2.0 0.00 0.48 0.48 99 1012.5
20260507075353 62 302 0.0 1.0 0.00 0.48 0.48 99 1012.7
20260507074849 62 217 0.0 1.0 0.00 0.48 0.48 99 1013.4
20260507074347 62 310 0.0 0.0 0.00 0.48 0.48 99 1013.3
20260507073844 62 311 0.0 1.0 0.00 0.48 0.48 99 1013.2
20260507073340 62 312 0.0 0.0 0.00 0.48 0.48 99 1013.1
20260507072838 62 313 0.0 0.0 0.00 0.48 0.48 99 1013.4
20260507072335 62 324 0.0 0.0 0.00 0.48 0.48 99 1013.3
20260507071832 62 324 0.0 0.0 0.00 0.48 0.48 99 1012.9
20260507071329 62 325 0.0 2.0 0.00 0.48 0.48 99 1012.7
20260507070825 62 55 2.0 2.0 0.00 0.48 0.48 99 1012.7
20260507070323 62 45 3.0 3.0 0.00 0.48 0.48 99 1013.0
20260507065820 62 33 2.0 4.0 0.00 0.48 0.48 99 1012.8